KD0OXW Weather Reports


time (UTC)temp
F
wind
direction
speed
knots
gust
knots
rain 1hr
in
rain 24hr
in
rain mn
in
humidity
%
barometer
mb
20260906162615 76 163 3.5 8.7 0.00 0.00 0.00 63 1019.7
20260906162115 76 166 2.6 7.8 0.00 0.00 0.00 64 1019.6
20260906161615 76 5 2.6 5.2 0.00 0.00 0.00 65 1019.6
20260906161115 76 103 3.5 7.0 0.00 0.00 0.00 65 1019.6
20260906160615 76 105 2.6 8.7 0.00 0.00 0.00 67 1019.6
20260906160115 76 144 2.6 5.2 0.00 0.00 0.00 66 1019.7
20260906155615 76 216 2.6 2.6 0.00 0.00 0.00 67 1019.8
20260906155115 76 255 2.6 7.0 0.00 0.00 0.00 66 1019.8
20260906154615 75 217 2.6 5.2 0.00 0.00 0.00 65 1019.8
20260906154115 75 110 2.6 6.1 0.00 0.00 0.00 67 1019.8
20260906153615 74 165 2.6 5.2 0.00 0.00 0.00 66 1019.9
20260906153115 74 92 2.6 6.1 0.00 0.00 0.00 70 1020.0
20260906152615 74 120 2.6 6.1 0.00 0.00 0.00 70 1020.1
20260906152115 74 128 3.5 6.1 0.00 0.00 0.00 69 1020.0
20260906151615 74 124 2.6 7.0 0.00 0.00 0.00 71 1019.9
20260906151115 74 119 1.7 7.0 0.00 0.00 0.00 73 1020.2
20260906150615 74 142 2.6 5.2 0.00 0.00 0.00 74 1020.3
20260906150115 73 130 2.6 6.1 0.00 0.00 0.00 73 1020.3
20260906145615 73 198 2.6 5.2 0.00 0.00 0.00 74 1020.2
20260906145115 73 135 2.6 7.8 0.00 0.00 0.00 74 1020.1
20260906144615 73 111 1.7 7.8 0.00 0.00 0.00 73 1020.2
20260906144115 73 172 1.7 3.5 0.00 0.00 0.00 76 1020.1
20260906143616 73 145 1.7 4.3 0.00 0.00 0.00 77 1020.0
20260906143115 72 146 1.7 5.2 0.00 0.00 0.00 78 1020.1
20260906142615 72 185 2.6 4.3 0.00 0.00 0.00 81 1020.0
20260906142116 71 138 3.5 6.1 0.00 0.00 0.00 82 1019.8
20260906141615 70 120 3.5 7.8 0.00 0.00 0.00 83 1019.7
20260906141116 70 112 3.5 7.0 0.00 0.00 0.00 85 1019.6
20260906140616 70 102 2.6 7.0 0.00 0.00 0.00 87 1019.7
20260906140116 69 121 2.6 5.2 0.00 0.00 0.00 89 1019.7
20260906135616 69 110 2.6 5.2 0.00 0.00 0.00 91 1019.7
20260906135116 69 123 2.6 6.1 0.00 0.00 0.00 92 1019.8
20260906134616 68 121 1.7 4.3 0.00 0.00 0.00 94 1019.8
20260906134116 68 101 1.7 2.6 0.00 0.00 0.00 95 1019.8
20260906133616 67 90 1.7 3.5 0.00 0.00 0.00 96 1020.0
20260906133116 67 101 0.9 2.6 0.00 0.00 0.00 97 1020.0
20260906132616 66 144 0.9 2.6 0.00 0.00 0.00 98 1019.9
20260906132116 65 145 0.9 1.7 0.00 0.00 0.00 98 1020.0
20260906131616 64 96 0.9 1.7 0.00 0.00 0.00 98 1020.0
20260906131116 63 118 0.0 1.7 0.00 0.00 0.00 98 1020.0
20260906130616 62 116 0.0 0.0 0.00 0.00 0.00 98 1019.9
20260906130116 62 5 0.0 0.0 0.00 0.00 0.00 98 1020.0
20260906125616 61 5 0.0 0.0 0.00 0.00 0.00 98 1020.2
20260906125116 60 5 0.0 0.0 0.00 0.00 0.00 98 1020.1
20260906124616 59 5 0.0 0.0 0.00 0.00 0.00 98 1020.1
20260906124116 59 5 0.0 0.0 0.00 0.00 0.00 98 1020.0
20260906123616 58 5 0.0 0.0 0.00 0.00 0.00 98 1020.1
20260906123116 58 5 0.0 0.0 0.00 0.00 0.00 97 1020.1
20260906122616 58 5 0.0 0.0 0.00 0.00 0.00 97 1020.0
20260906122116 57 5 0.0 0.0 0.00 0.00 0.00 97 1019.9
20260906121616 57 5 0.0 0.0 0.00 0.00 0.00 97 1019.9
20260906121116 57 5 0.0 0.0 0.00 0.00 0.00 97 1019.8
20260906120616 57 5 0.0 0.0 0.00 0.00 0.00 97 1019.7
20260906120116 57 5 0.0 0.0 0.00 0.00 0.00 97 1019.6
20260906115616 57 5 0.0 0.0 0.00 0.00 0.00 96 1019.6
20260906115116 57 5 0.0 0.0 0.00 0.00 0.00 96 1019.3
20260906114616 57 5 0.0 0.0 0.00 0.00 0.00 97 1019.2
20260906114116 57 5 0.0 0.0 0.00 0.00 0.00 96 1019.2
20260906113616 57 5 0.0 0.0 0.00 0.00 0.00 97 1019.2
20260906113116 57 5 0.0 0.0 0.00 0.00 0.00 97 1019.1
20260906112616 57 5 0.0 0.0 0.00 0.00 0.00 97 1019.0
20260906112116 57 5 0.0 0.0 0.00 0.00 0.00 96 1019.0
20260906111616 57 5 0.0 0.0 0.00 0.00 0.00 96 1019.0
20260906111116 57 5 0.0 0.0 0.00 0.00 0.00 96 1019.0
20260906110616 58 5 0.0 0.0 0.00 0.00 0.00 96 1019.0
20260906110116 58 5 0.0 0.0 0.00 0.00 0.00 96 1018.9
20260906105616 58 5 0.0 0.0 0.00 0.00 0.00 96 1018.8
20260906105116 58 5 0.0 0.0 0.00 0.00 0.00 96 1018.8
20260906104616 58 5 0.0 0.0 0.00 0.00 0.00 96 1018.9
20260906104116 58 5 0.0 0.0 0.00 0.00 0.00 96 1019.0
20260906103616 58 5 0.0 0.0 0.00 0.00 0.00 96 1018.9
20260906103116 58 5 0.0 0.0 0.00 0.00 0.00 96 1018.8
20260906102616 58 5 0.0 0.0 0.00 0.00 0.00 96 1018.9
20260906102116 58 5 0.0 0.0 0.00 0.00 0.00 95 1018.9
20260906101616 59 5 0.0 0.0 0.00 0.00 0.00 96 1018.9
20260906101116 59 5 0.0 0.0 0.00 0.00 0.00 96 1018.8
20260906100616 59 5 0.0 0.0 0.00 0.00 0.00 95 1018.7
20260906100116 59 5 0.0 0.0 0.00 0.00 0.00 95 1018.8
20260906095616 59 5 0.0 0.0 0.00 0.00 0.00 95 1018.9
20260906095116 59 5 0.0 0.0 0.00 0.00 0.00 95 1018.8
20260906094616 59 5 0.0 0.0 0.00 0.00 0.00 95 1018.7
20260906094116 59 5 0.0 0.0 0.00 0.00 0.00 95 1018.8
20260906093616 60 5 0.0 0.0 0.00 0.00 0.00 95 1018.9
20260906093116 60 5 0.0 0.0 0.00 0.00 0.00 95 1018.9
20260906092616 60 5 0.0 0.0 0.00 0.00 0.00 95 1018.8
20260906092116 60 5 0.0 0.0 0.00 0.00 0.00 95 1018.7
20260906091616 60 5 0.0 0.0 0.00 0.00 0.00 95 1018.6
20260906091116 60 5 0.0 0.0 0.00 0.00 0.00 95 1018.6
20260906090616 60 5 0.0 0.0 0.00 0.00 0.00 95 1018.7
20260906090116 60 5 0.0 0.0 0.00 0.00 0.00 95 1018.7
20260906085616 60 5 0.0 0.0 0.00 0.00 0.00 95 1018.7
20260906085116 60 5 0.0 0.0 0.00 0.00 0.00 95 1018.6
20260906084616 60 5 0.0 0.0 0.00 0.00 0.00 95 1018.6
20260906084116 61 5 0.0 0.0 0.00 0.00 0.00 95 1018.8
20260906083616 61 5 0.0 0.0 0.00 0.00 0.00 94 1018.8
20260906083116 61 5 0.0 0.0 0.00 0.00 0.00 94 1018.7
20260906082616 61 5 0.0 0.0 0.00 0.00 0.00 94 1018.7
20260906082116 61 5 0.0 0.0 0.00 0.00 0.00 94 1018.6
20260906081616 61 5 0.0 0.0 0.00 0.00 0.00 94 1018.5
20260906081116 61 5 0.0 0.0 0.00 0.00 0.00 94 1018.4
20260906080616 61 5 0.0 0.0 0.00 0.00 0.00 94 1018.4
20260906080116 61 5 0.0 0.0 0.00 0.00 0.00 93 1018.4
20260906075616 62 5 0.0 0.0 0.00 0.00 0.00 93 1018.2
20260906075116 62 5 0.0 0.0 0.00 0.00 0.00 93 1018.3
20260906074616 62 5 0.0 0.0 0.00 0.00 0.00 93 1018.4
20260906074116 62 5 0.9 0.9 0.00 0.00 0.00 93 1018.4
20260906073616 62 5 0.0 1.7 0.00 0.00 0.00 93 1018.4
20260906073117 62 80 0.0 0.0 0.00 0.00 0.00 93 1018.3
20260906072616 62 80 0.0 0.0 0.00 0.00 0.00 93 1018.3
20260906072117 62 80 0.0 0.0 0.00 0.00 0.00 92 1018.5
20260906071616 62 80 0.0 0.0 0.00 0.00 0.00 93 1018.5
20260906071117 63 80 0.0 0.0 0.00 0.00 0.00 93 1018.5
20260906070617 62 80 0.0 0.0 0.00 0.00 0.00 93 1018.4
20260906070117 62 344 0.0 0.0 0.00 0.00 0.00 93 1018.3
20260906065617 62 344 0.0 0.0 0.00 0.00 0.00 92 1018.3
20260906065117 62 344 0.0 0.0 0.00 0.00 0.00 92 1018.4
20260906064617 62 343 0.0 0.0 0.00 0.00 0.00 92 1018.5
20260906064117 62 343 0.0 0.0 0.00 0.00 0.00 92 1018.6
20260906063617 62 343 0.0 0.0 0.00 0.00 0.00 92 1018.6
20260906063117 62 343 0.0 0.0 0.00 0.00 0.00 92 1018.7
20260906062617 62 343 0.0 0.0 0.00 0.00 0.00 92 1018.7
20260906062117 62 343 0.0 0.0 0.00 0.00 0.00 92 1018.8
20260906061617 62 343 0.0 0.0 0.00 0.00 0.00 92 1018.7
20260906061117 62 343 0.0 0.0 0.00 0.00 0.00 92 1018.6
20260906060617 62 343 0.0 0.0 0.00 0.00 0.00 92 1018.5
20260906060117 62 343 0.0 0.0 0.00 0.00 0.00 92 1018.5
20260906055617 62 343 0.0 0.0 0.00 0.00 0.00 92 1018.4
20260906055117 63 343 0.0 0.0 0.00 0.00 0.00 91 1018.5
20260906054617 63 343 0.0 0.0 0.00 0.00 0.00 91 1018.6
20260906054117 63 343 0.0 0.0 0.00 0.00 0.00 91 1018.4
20260906053617 63 343 0.9 0.0 0.00 0.00 0.00 91 1018.5
20260906053117 63 343 0.9 2.6 0.00 0.00 0.00 91 1018.5
20260906052617 63 343 0.0 2.6 0.00 0.00 0.00 91 1018.4
20260906052117 63 51 0.0 0.0 0.00 0.00 0.00 90 1018.0
20260906051617 63 51 0.0 0.0 0.00 0.00 0.00 90 1018.1
20260906051117 63 51 0.0 0.0 0.00 0.00 0.00 90 1018.2
20260906050617 63 51 0.0 0.0 0.00 0.00 0.00 90 1018.2
20260906050117 63 51 0.0 0.0 0.00 0.00 0.00 90 1018.3
20260906045617 64 51 0.0 0.0 0.00 0.00 0.00 90 1018.3
20260906045117 64 5 0.0 0.0 0.00 0.00 0.00 89 1018.4
20260906044617 64 61 0.0 0.0 0.00 0.00 0.00 89 1018.5
20260906044117 64 61 0.0 0.9 0.00 0.00 0.00 89 1018.4
20260906043617 64 91 0.9 1.7 0.00 0.00 0.00 88 1018.3
20260906043117 64 345 0.9 3.5 0.00 0.00 0.00 88 1018.3
20260906042617 64 325 0.0 0.0 0.00 0.00 0.00 88 1018.2
20260906042117 64 269 0.0 0.0 0.00 0.00 0.00 87 1018.0
20260906041617 64 269 0.0 0.0 0.00 0.00 0.00 87 1018.2
20260906041117 65 269 0.0 0.0 0.00 0.00 0.00 87 1018.4
20260906040617 65 269 0.0 0.0 0.00 0.00 0.00 86 1018.3
20260906040117 65 269 0.0 0.0 0.00 0.00 0.00 86 1018.3
20260906035617 65 269 0.0 0.0 0.00 0.00 0.00 86 1018.3
20260906035117 65 269 0.0 0.0 0.00 0.00 0.00 85 1018.3
20260906034617 65 281 0.0 0.0 0.00 0.00 0.00 85 1018.3
20260906034117 65 329 0.0 0.0 0.00 0.00 0.00 84 1018.2
20260906033617 65 277 0.0 0.9 0.00 0.00 0.00 85 1018.1
20260906033117 65 5 0.9 1.7 0.00 0.00 0.00 84 1017.9
20260906032617 65 5 0.9 2.6 0.00 0.00 0.00 84 1017.7
20260906032117 65 67 0.9 2.6 0.00 0.00 0.00 84 1017.7
20260906031617 65 34 1.7 2.6 0.00 0.00 0.00 84 1017.7
20260906031117 66 65 0.9 3.5 0.00 0.00 0.00 85 1017.5
20260906030617 66 20 1.7 2.6 0.00 0.00 0.00 85 1017.4
20260906030117 66 22 1.7 4.3 0.00 0.00 0.00 85 1017.4
20260906025617 66 5 2.6 4.3 0.00 0.00 0.00 85 1017.4
20260906025117 66 5 1.7 4.3 0.00 0.00 0.00 85 1017.3
20260906024617 66 36 1.7 4.3 0.00 0.00 0.00 86 1017.1
20260906024117 66 37 1.7 5.2 0.00 0.00 0.00 86 1017.1
20260906023617 66 5 2.6 4.3 0.00 0.00 0.00 85 1017.1
20260906023117 66 34 2.6 6.1 0.00 0.00 0.00 86 1017.0
20260906022617 66 71 2.6 6.1 0.00 0.00 0.00 86 1016.9
20260906022117 66 73 1.7 3.5 0.00 0.00 0.00 86 1016.9
20260906021617 66 57 2.6 3.5 0.00 0.00 0.00 87 1016.9
20260906021117 66 71 1.7 4.3 0.00 0.00 0.00 87 1016.8
20260906020617 66 49 1.7 4.3 0.00 0.00 0.00 87 1016.7
20260906020117 66 64 1.7 3.5 0.00 0.00 0.00 87 1016.7
20260906015617 66 23 1.7 5.2 0.00 0.00 0.00 87 1016.7
20260906015117 66 38 1.7 3.5 0.00 0.00 0.00 86 1016.7
20260906014617 66 77 2.6 6.1 0.00 0.00 0.00 86 1016.7
20260906014117 66 88 2.6 3.5 0.00 0.00 0.00 86 1016.7
20260906013617 66 18 2.6 6.1 0.00 0.00 0.00 86 1016.6
20260906013117 67 85 1.7 4.3 0.00 0.00 0.00 86 1016.6
20260906012617 67 49 1.7 4.3 0.00 0.00 0.00 86 1016.5
20260906012117 67 70 1.7 3.5 0.00 0.00 0.00 85 1016.6
20260906011617 67 22 1.7 3.5 0.00 0.00 0.00 85 1016.6
20260906011117 67 11 2.6 3.5 0.00 0.00 0.00 85 1016.6
20260906010617 68 58 2.6 6.1 0.00 0.00 0.00 85 1016.6
20260906010117 68 24 2.6 5.2 0.00 0.00 0.00 85 1016.6
20260906005617 68 18 2.6 6.1 0.00 0.00 0.00 85 1016.6
20260906005117 69 16 2.6 3.5 0.00 0.00 0.00 84 1016.6
20260906004617 69 36 2.6 6.1 0.00 0.00 0.00 85 1016.7
20260906004117 69 5 2.6 4.3 0.00 0.00 0.00 85 1016.7
20260906003617 69 43 2.6 4.3 0.00 0.00 0.00 85 1016.7
20260906003117 70 101 2.6 7.0 0.00 0.00 0.00 85 1016.6
20260906002617 70 39 2.6 5.2 0.00 0.00 0.00 84 1016.6
20260906002117 70 24 2.6 6.1 0.00 0.00 0.00 84 1016.7
20260906001617 71 344 2.6 5.2 0.00 0.00 0.00 83 1016.6
20260906001118 71 27 3.5 8.7 0.00 0.00 0.00 82 1016.5
20260906000617 72 30 3.5 7.8 0.00 0.00 0.00 82 1016.5
20260906000118 72 79 3.5 7.0 0.00 0.00 0.00 82 1016.6
20260905235618 72 346 4.3 7.0 0.00 0.00 0.00 81 1016.6
20260905235118 73 14 3.5 7.8 0.00 0.00 0.00 80 1016.6
20260905234618 73 46 2.6 5.2 0.00 0.00 0.00 80 1016.6
20260905234118 73 5 2.6 4.3 0.00 0.00 0.00 80 1016.6
20260905233618 73 319 1.7 6.1 0.00 0.00 0.00 79 1016.5
20260905233118 74 355 0.9 2.6 0.00 0.00 0.00 79 1016.4
20260905232618 74 5 1.7 3.5 0.00 0.00 0.00 78 1016.5
20260905232118 74 328 1.7 4.3 0.00 0.00 0.00 78 1016.6
20260905231618 74 290 1.7 5.2 0.00 0.00 0.00 78 1016.5
20260905231118 74 337 1.7 4.3 0.00 0.00 0.00 78 1016.5
20260905230618 74 322 1.7 5.2 0.00 0.00 0.00 78 1016.6
20260905230118 74 275 1.7 4.3 0.00 0.00 0.00 77 1016.6
20260905225618 75 303 1.7 4.3 0.00 0.00 0.00 77 1016.6
20260905225118 75 327 1.7 5.2 0.00 0.00 0.00 77 1016.7
20260905224618 75 320 1.7 3.5 0.00 0.00 0.00 77 1016.6
20260905224118 75 269 0.9 4.3 0.00 0.00 0.00 76 1016.4
20260905223618 75 311 0.9 2.6 0.00 0.00 0.00 77 1016.4
20260905223118 75 338 1.7 3.5 0.00 0.00 0.00 76 1016.5
20260905222618 75 345 0.9 3.5 0.00 0.00 0.00 75 1016.5
20260905222118 76 275 1.7 3.5 0.00 0.00 0.00 74 1016.5
20260905221618 76 313 1.7 6.1 0.00 0.00 0.00 73 1016.5
20260905221118 77 267 1.7 3.5 0.00 0.00 0.00 72 1016.5
20260905220618 78 337 1.7 3.5 0.00 0.00 0.00 71 1016.5
20260905220118 78 355 1.7 3.5 0.00 0.00 0.00 71 1016.4
20260905215618 78 299 1.7 3.5 0.00 0.00 0.00 71 1016.5
20260905215118 78 171 1.7 4.3 0.00 0.00 0.00 71 1016.6
20260905214618 78 297 0.9 3.5 0.00 0.00 0.00 71 1016.6
20260905214118 78 209 0.9 3.5 0.00 0.00 0.00 72 1016.6
20260905213618 77 284 0.9 1.7 0.00 0.00 0.00 75 1016.7
20260905213118 76 163 0.9 3.5 0.00 0.00 0.00 74 1016.8
20260905212618 76 254 0.9 2.6 0.00 0.00 0.00 74 1016.9
20260905212118 77 280 0.9 0.9 0.00 0.00 0.00 73 1016.8
20260905211618 77 121 1.7 2.6 0.00 0.00 0.00 72 1016.8
20260905211118 77 5 1.7 3.5 0.00 0.00 0.00 72 1016.9
20260905210618 77 346 1.7 2.6 0.00 0.00 0.00 72 1016.9
20260905210118 77 206 1.7 2.6 0.00 0.00 0.00 71 1017.1
20260905205618 77 112 1.7 3.5 0.00 0.00 0.00 70 1017.1
20260905205118 77 118 2.6 5.2 0.00 0.00 0.00 71 1017.2
20260905204618 77 351 2.6 8.7 0.00 0.00 0.00 71 1017.1
20260905204118 77 94 2.6 3.5 0.00 0.00 0.00 73 1017.1
20260905203618 76 237 2.6 5.2 0.00 0.00 0.00 74 1017.1
20260905203118 76 121 1.7 5.2 0.00 0.00 0.00 73 1017.1
20260905202618 76 53 1.7 3.5 0.00 0.00 0.00 73 1017.3
20260905202118 76 136 1.7 4.3 0.00 0.00 0.00 74 1017.4
20260905201618 76 149 1.7 4.3 0.00 0.00 0.00 76 1017.5
20260905201118 75 123 2.6 5.2 0.00 0.00 0.00 76 1017.4
20260905200618 75 183 2.6 4.3 0.00 0.00 0.00 76 1017.6
20260905200118 74 194 2.6 4.3 0.00 0.00 0.00 77 1017.6
20260905195618 74 103 2.6 6.1 0.00 0.00 0.00 78 1017.5
20260905195118 74 175 1.7 6.1 0.00 0.00 0.00 78 1017.5
20260905194618 74 213 0.9 5.2 0.00 0.00 0.00 78 1017.5
20260905194118 73 244 0.9 1.7 0.00 0.00 0.00 80 1017.4
20260905193618 72 5 1.7 2.6 0.00 0.00 0.00 80 1017.5
20260905193118 72 36 1.7 3.5 0.00 0.00 0.00 80 1017.4
20260905192618 72 28 1.7 3.5 0.00 0.00 0.00 81 1017.5
20260905192118 72 5 1.7 3.5 0.00 0.00 0.00 80 1017.5
20260905191618 72 346 1.7 4.3 0.00 0.00 0.00 80 1017.5
20260905191118 72 130 1.7 2.6 0.00 0.00 0.00 82 1017.5
20260905190618 72 288 2.6 4.3 0.00 0.00 0.00 82 1017.4
20260905190118 72 35 2.6 5.2 0.00 0.00 0.00 82 1017.4
20260905185618 71 15 1.7 5.2 0.00 0.00 0.00 83 1017.4
20260905185118 71 288 1.7 4.3 0.00 0.00 0.00 83 1017.4
20260905184618 71 161 1.7 3.5 0.00 0.00 0.00 83 1017.5
20260905184118 71 65 1.7 3.5 0.00 0.00 0.00 83 1017.6
20260905183618 71 304 0.9 2.6 0.00 0.00 0.00 84 1017.6
20260905183118 70 9 0.9 3.5 0.00 0.00 0.00 84 1017.8
20260905182618 70 12 0.9 0.0 0.00 0.00 0.00 85 1017.8
20260905182118 70 9 1.7 3.5 0.00 0.00 0.00 85 1017.9
20260905181618 70 338 1.7 3.5 0.00 0.00 0.00 85 1018.0
20260905181118 70 19 1.7 3.5 0.00 0.00 0.00 86 1017.9
20260905180618 70 57 2.6 4.3 0.00 0.00 0.00 86 1017.9
20260905180118 70 43 2.6 4.3 0.00 0.00 0.00 86 1017.9
20260905175618 69 35 2.6 4.3 0.00 0.00 0.00 87 1017.8
20260905175118 69 47 2.6 5.2 0.00 0.00 0.00 87 1018.0
20260905174618 69 57 1.7 5.2 0.00 0.00 0.00 87 1018.1
20260905174118 69 46 1.7 2.6 0.00 0.00 0.00 87 1018.1
20260905173618 69 14 2.6 3.5 0.00 0.00 0.00 88 1018.1
20260905173118 69 335 1.7 3.5 0.00 0.00 0.00 88 1018.2
20260905172618 69 25 1.7 2.6 0.00 0.00 0.00 88 1018.2
20260905172118 69 355 1.7 2.6 0.00 0.00 0.00 88 1018.1
20260905171618 69 73 2.6 3.5 0.00 0.00 0.00 88 1018.1
20260905171118 69 46 1.7 4.3 0.00 0.00 0.00 88 1018.0
20260905170618 69 22 0.9 4.3 0.00 0.00 0.00 88 1018.0
20260905170118 69 54 0.9 3.5 0.00 0.00 0.00 88 1018.0
20260905165618 68 57 0.0 1.7 0.00 0.00 0.00 89 1018.1
20260905165119 68 100 0.9 0.0 0.00 0.00 0.00 89 1018.3
20260905164619 68 102 1.7 1.7 0.00 0.00 0.00 89 1018.3
20260905164119 68 153 1.7 5.2 0.00 0.00 0.00 89 1018.4
20260905163619 68 174 1.7 3.5 0.00 0.00 0.00 90 1018.3
20260905163118 68 138 1.7 3.5 0.00 0.00 0.00 89 1018.1